Location: Newark
(49.8969°N, 3.3422°E)
Time: 13:47:44
(UTC+00:00)

Tiros 1 - Pass Details

Date: 15 May 2021
Orbit: 630 x 664 km, 48.4° (Epoch: 11 June)

Event Time Altitude Azimuth Distance (km) Brightness Sun altitude
Exits shadow 00:15:44 39° 137° (SE) 993 7.8 -20.8°
Drops below altitude 10° 00:19:40 10° 85° (E) 2,069 9.9 -20.7°
Sets 00:22:06 0° 79° (ENE) 2,977 10.8 -20.7°
